AA9VI-10 Weather Reports


time (UTC)temp
F
wind
direction
speed
knots
gust
knots
rain 1hr
in
rain 24hr
in
rain mn
in
humidity
%
barometer
mb
20260504050016 58 0 2.6 7.0 0.00 0.00 0.00 59 1005.4
20260504045017 58 0 2.6 5.2 0.00 0.00 0.00 59 1005.4
20260504044017 58 0 2.6 5.2 0.00 0.00 0.00 59 1005.3
20260504043017 59 0 1.7 7.0 0.00 0.00 0.00 59 1005.3
20260504042017 59 0 1.7 4.3 0.00 0.00 0.00 58 1005.4
20260504041017 59 0 0.9 2.6 0.00 0.00 0.00 58 1005.3
20260504040017 59 0 1.7 4.3 0.00 0.00 0.00 58 1005.5
20260504035017 59 0 1.7 4.3 0.00 0.00 0.00 59 1005.5
20260504034017 59 0 0.9 2.6 0.00 0.00 0.00 59 1005.5
20260504033016 59 0 0.9 3.5 0.00 0.00 0.00 58 1005.7
20260504032017 60 0 0.9 3.5 0.00 0.00 0.00 58 1005.8
20260504031017 60 0 1.7 4.3 0.00 0.00 0.00 57 1006.0
20260504030017 60 0 0.9 2.6 0.00 0.00 0.00 57 1006.0
20260504025017 60 0 0.9 2.6 0.00 0.00 0.00 56 1006.0
20260504024017 61 0 1.7 4.3 0.00 0.00 0.00 56 1005.9
20260504023017 61 0 0.9 3.5 0.00 0.00 0.00 55 1006.0
20260504022017 61 0 0.9 2.6 0.00 0.00 0.00 54 1005.9
20260504021017 62 0 1.7 2.6 0.00 0.00 0.00 53 1005.9
20260504020017 62 0 0.9 2.6 0.00 0.00 0.00 52 1005.8
20260504015017 63 0 0.9 2.6 0.00 0.00 0.00 51 1005.7
20260504014017 63 0 0.9 2.6 0.00 0.00 0.00 50 1005.6
20260504013017 63 0 1.7 3.5 0.00 0.00 0.00 50 1005.5
20260504012017 64 0 0.9 2.6 0.00 0.00 0.00 49 1005.3
20260504011017 64 0 0.9 2.6 0.00 0.00 0.00 48 1005.2
20260504010017 65 0 0.9 2.6 0.00 0.00 0.00 46 1005.1
20260504005017 66 0 1.7 3.5 0.00 0.00 0.00 46 1005.2
20260504004017 66 0 1.7 5.2 0.00 0.00 0.00 45 1005.4
20260504003017 67 225 0.9 3.5 0.00 0.00 0.00 44 1005.4
20260504002017 67 225 0.9 3.5 0.00 0.00 0.00 43 1005.4
20260504001017 67 0 2.6 4.3 0.00 0.00 0.00 42 1005.3
20260504000017 68 248 1.7 7.0 0.00 0.00 0.00 42 1005.4
20260503235017 68 225 3.5 9.6 0.00 0.00 0.00 41 1005.4
20260503234017 68 225 1.7 5.2 0.00 0.00 0.00 42 1005.4
20260503233017 68 270 1.7 7.0 0.00 0.00 0.00 41 1005.4
20260503232017 68 225 2.6 6.1 0.00 0.00 0.00 40 1005.5
20260503231017 69 225 2.6 9.6 0.00 0.00 0.00 40 1005.6
20260503230017 69 203 1.7 5.2 0.00 0.00 0.00 40 1005.6
20260503225022 69 180 1.7 7.0 0.00 0.00 0.00 42 1005.7
20260503224017 68 225 4.3 9.6 0.00 0.00 0.00 40 1005.7
20260503223017 68 158 5.2 13.9 0.00 0.00 0.00 40 1005.7
20260503222017 68 180 4.3 11.3 0.00 0.00 0.00 40 1005.8
20260503221017 68 180 4.3 13.0 0.00 0.00 0.00 40 1005.9
20260503220017 67 180 6.1 14.8 0.00 0.00 0.00 39 1006.1
20260503215017 67 180 4.3 10.4 0.00 0.00 0.00 40 1006.0
20260503214017 67 180 5.2 11.3 0.00 0.00 0.00 40 1006.2
20260503213016 67 180 6.1 15.6 0.00 0.00 0.00 40 1006.4
20260503212017 66 180 4.3 15.6 0.00 0.00 0.00 40 1006.5
20260503211017 65 225 5.2 12.2 0.00 0.00 0.00 41 1006.6
20260503210017 66 180 6.1 13.9 0.00 0.00 0.00 39 1006.7
20260503205017 66 180 6.1 13.9 0.00 0.00 0.00 38 1006.9
20260503204017 66 248 6.1 13.9 0.00 0.00 0.00 39 1007.0
20260503203017 66 158 6.1 19.1 0.00 0.00 0.00 38 1007.3
20260503202017 65 203 7.8 20.9 0.00 0.00 0.00 40 1007.7
20260503201017 64 180 5.2 9.6 0.00 0.00 0.00 45 1007.8
20260503200016 63 0 5.2 13.9 0.00 0.00 0.00 47 1007.9
20260503195017 63 0 6.1 11.3 0.00 0.00 0.00 47 1008.3
20260503194017 62 0 5.2 16.5 0.00 0.00 0.00 49 1008.4
20260503193017 62 180 6.1 13.0 0.00 0.00 0.00 49 1008.5
20260503192017 61 180 6.1 15.6 0.00 0.00 0.00 50 1008.5
20260503191017 61 0 5.2 15.6 0.00 0.00 0.00 49 1008.5
20260503190017 60 0 5.2 13.0 0.00 0.00 0.00 51 1008.6
20260503185017 59 0 7.0 15.6 0.00 0.00 0.00 50 1008.7
20260503184016 59 0 6.1 13.0 0.00 0.00 0.00 50 1009.0
20260503183017 59 0 3.5 12.2 0.00 0.00 0.00 52 1009.2
20260503182017 57 0 6.1 13.0 0.00 0.00 0.00 53 1009.4
20260503181017 58 0 3.5 10.4 0.00 0.00 0.00 54 1009.5
20260503180017 57 0 4.3 10.4 0.00 0.00 0.00 57 1009.8
20260503175017 56 0 5.2 11.3 0.00 0.00 0.00 58 1010.1
20260503174016 56 0 5.2 12.2 0.00 0.00 0.00 58 1010.6
20260503173017 56 0 5.2 13.0 0.00 0.00 0.00 58 1010.8
20260503172017 56 0 7.0 18.2 0.00 0.00 0.00 58 1011.2
20260503171017 55 180 6.1 12.2 0.00 0.00 0.00 60 1011.3
20260503131017 49 203 3.5 7.0 0.00 0.00 0.00 58 1013.8
20260503081016 45 225 1.7 3.5 0.00 0.00 0.00 55 1014.3
20260503072017 45 225 1.7 6.1 0.00 0.00 0.00 54 1014.5